When you browse on this site, cookies collect data to enhance your experience and personalize the content and advertising you see.
Visit our Privacy Policy to learn more. By continuing to use the site, you agree to this use of cookies and data.
  • In Czech Republic
  • List of Countries
  • For 7 days
  • Water Temperature
  • Weather Map
  • Weather Widgets
  • user-avatar
    Login

    Hourly Weather Orlino

    Today, 25 August, Sunday

    Time Temperature Precipitation Wind Pressure Humidity
    00:00 +15°C° 0 mm 1 mps 756 mmHg 81%
    01:00 +15°C° 0 mm 1 mps 756 mmHg 82%
    02:00 +15°C° 0 mm 1 mps 757 mmHg 83%
    03:00 +15°C° 0 mm 1 mps 757 mmHg 84%
    04:00 +14°C° 0 mm 1 mps 757 mmHg 86%
    05:00 +14°C° 0 mm 1 mps 757 mmHg 88%
    06:00 +16°C° 0 mm 1 mps 757 mmHg 83%
    07:00 +19°C° 0 mm 1 mps 757 mmHg 78%
    08:00 +20°C° 0 mm 1 mps 757 mmHg 73%
    09:00 +22°C° 0 mm 1 mps 757 mmHg 68%
    10:00 +24°C° 0 mm 1 mps 757 mmHg 63%
    11:00 +25°C° 0 mm 1 mps 757 mmHg 59%
    12:00 +25°C° 0 mm 2 mps 757 mmHg 58%
    13:00 +26°C° 0 mm 2 mps 757 mmHg 57%
    14:00 +26°C° 0 mm 2 mps 757 mmHg 57%
    15:00 +25°C° 0 mm 2 mps 757 mmHg 60%
    16:00 +25°C° 0 mm 2 mps 757 mmHg 64%
    17:00 +24°C° 0 mm 2 mps 757 mmHg 67%
    18:00 +23°C° 0 mm 2 mps 757 mmHg 72%
    19:00 +20°C° 0 mm 2 mps 757 mmHg 76%
    20:00 +18°C° 0 mm 2 mps 757 mmHg 80%
    21:00 +18°C° 0 mm 2 mps 757 mmHg 82%
    22:00 +17°C° 0 mm 2 mps 757 mmHg 83%
    23:00 +16°C° 0 mm 2 mps 758 mmHg 85%

    Tomorrow, 26 August, Monday

    Time Temperature Precipitation Wind Pressure Humidity
    00:00 +16°C° 0 mm 2 mps 758 mmHg 86%
    01:00 +15°C° 0 mm 2 mps 758 mmHg 87%
    02:00 +15°C° 0 mm 2 mps 758 mmHg 88%
    03:00 +15°C° 0 mm 1 mps 758 mmHg 90%
    04:00 +14°C° 0 mm 1 mps 758 mmHg 91%
    05:00 +14°C° 0 mm 1 mps 758 mmHg 92%
    06:00 +16°C° 0 mm 1 mps 758 mmHg 86%
    07:00 +18°C° 0 mm 1 mps 758 mmHg 80%
    08:00 +20°C° 0 mm 1 mps 758 mmHg 74%
    09:00 +21°C° 0 mm 1 mps 758 mmHg 68%
    10:00 +23°C° 0 mm 1 mps 758 mmHg 63%
    11:00 +25°C° 0 mm 1 mps 758 mmHg 57%
    12:00 +25°C° 0 mm 1 mps 758 mmHg 55%
    13:00 +26°C° 0 mm 1 mps 757 mmHg 52%
    14:00 +26°C° 0 mm 1 mps 757 mmHg 49%
    15:00 +26°C° 0 mm 1 mps 757 mmHg 51%
    16:00 +26°C° 0 mm 1 mps 756 mmHg 53%
    17:00 +25°C° 0 mm 1 mps 756 mmHg 55%
    18:00 +23°C° 0 mm 1 mps 756 mmHg 61%
    19:00 +21°C° 0 mm 1 mps 756 mmHg 67%
    20:00 +19°C° 0 mm 1 mps 756 mmHg 73%
    21:00 +19°C° 0 mm 1 mps 756 mmHg 76%
    22:00 +16°C° 0 mm 0 mps 756 mmHg 78%
    23:00 +15°C° 0 mm 0 mps 756 mmHg 81%

    Day after tomorrow, 27 August, Tuesday

    Time Temperature Precipitation Wind Pressure Humidity
    00:00 +15°C° 0 mm 0 mps 756 mmHg 81%
    01:00 +15°C° 0 mm 0 mps 756 mmHg 82%
    02:00 +15°C° 0 mm 0 mps 756 mmHg 83%
    03:00 +15°C° 0 mm 0 mps 756 mmHg 83%
    04:00 +16°C° 0 mm 1 mps 756 mmHg 83%
    05:00 +15°C° 0 mm 1 mps 756 mmHg 83%
    06:00 +18°C° 0 mm 1 mps 756 mmHg 80%
    07:00 +19°C° 0 mm 1 mps 756 mmHg 76%
    08:00 +21°C° 0 mm 1 mps 756 mmHg 73%
    09:00 +22°C° 0 mm 1 mps 756 mmHg 70%
    10:00 +24°C° 0 mm 2 mps 756 mmHg 66%
    11:00 +25°C° 0 mm 2 mps 756 mmHg 62%
    12:00 +26°C° 0 mm 2 mps 756 mmHg 60%
    13:00 +26°C° 0 mm 2 mps 755 mmHg 58%
    14:00 +27°C° 0 mm 2 mps 755 mmHg 56%
    15:00 +27°C° 0 mm 2 mps 755 mmHg 59%
    16:00 +26°C° 0 mm 2 mps 755 mmHg 62%
    17:00 +26°C° 0 mm 2 mps 755 mmHg 65%
    18:00 +24°C° 0 mm 2 mps 755 mmHg 71%
    19:00 +22°C° 0 mm 1 mps 755 mmHg 77%
    20:00 +20°C° 0 mm 1 mps 755 mmHg 82%
    21:00 +20°C° 0 mm 1 mps 755 mmHg 84%
    22:00 +19°C° 0 mm 1 mps 755 mmHg 85%
    23:00 +19°C° 0 mm 1 mps 755 mmHg 87%

    28 August, Wednesday

    Time Temperature Precipitation Wind Pressure Humidity
    00:00 +18°C° 0 mm 1 mps 755 mmHg 88%
    01:00 +18°C° 0 mm 1 mps 755 mmHg 90%
    02:00 +16°C° 0 mm 1 mps 755 mmHg 91%
    03:00 +16°C° 0 mm 1 mps 756 mmHg 91%
    04:00 +15°C° 0 mm 1 mps 756 mmHg 92%
    05:00 +15°C° 0 mm 1 mps 756 mmHg 92%
    06:00 +16°C° 0 mm 2 mps 756 mmHg 85%
    07:00 +17°C° 0 mm 2 mps 756 mmHg 79%
    08:00 +19°C° 0 mm 2 mps 756 mmHg 72%
    09:00 +20°C° 0 mm 3 mps 756 mmHg 65%
    10:00 +21°C° 0 mm 3 mps 756 mmHg 58%
    11:00 +22°C° 0 mm 3 mps 756 mmHg 51%
    12:00 +24°C° 0 mm 3 mps 756 mmHg 50%
    13:00 +24°C° 0 mm 3 mps 756 mmHg 50%
    14:00 +24°C° 0 mm 3 mps 755 mmHg 49%
    15:00 +24°C° 0 mm 3 mps 755 mmHg 52%
    16:00 +22°C° 0 mm 3 mps 755 mmHg 56%
    17:00 +22°C° 0 mm 3 mps 755 mmHg 60%
    18:00 +20°C° 0 mm 3 mps 755 mmHg 67%
    19:00 +18°C° 0 mm 3 mps 755 mmHg 74%
    20:00 +16°C° 0 mm 2 mps 755 mmHg 81%
    21:00 +15°C° 0 mm 2 mps 756 mmHg 80%
    22:00 +14°C° 0 mm 2 mps 756 mmHg 80%
    23:00 +13°C° 0 mm 2 mps 756 mmHg 79%

    29 August, Thursday

    Time Temperature Precipitation Wind Pressure Humidity
    00:00 +13°C° 0 mm 2 mps 756 mmHg 77%
    01:00 +12°C° 0 mm 2 mps 756 mmHg 74%
    02:00 +10°C° 0 mm 2 mps 756 mmHg 72%
    03:00 +9°C° 0 mm 2 mps 756 mmHg 74%
    04:00 +9°C° 0 mm 2 mps 756 mmHg 76%
    05:00 +8°C° 0 mm 2 mps 757 mmHg 78%
    06:00 +10°C° 0 mm 3 mps 757 mmHg 74%
    07:00 +11°C° 0 mm 3 mps 757 mmHg 70%
    08:00 +12°C° 0 mm 3 mps 757 mmHg 67%
    09:00 +14°C° 0 mm 3 mps 757 mmHg 62%
    10:00 +17°C° 0 mm 3 mps 757 mmHg 57%
    11:00 +18°C° 0 mm 4 mps 757 mmHg 52%
    12:00 +19°C° 0 mm 4 mps 756 mmHg 50%
    13:00 +20°C° 0 mm 4 mps 756 mmHg 49%
    14:00 +20°C° 0 mm 4 mps 756 mmHg 48%
    15:00 +20°C° 0 mm 3 mps 756 mmHg 51%
    16:00 +19°C° 0 mm 3 mps 755 mmHg 55%
    17:00 +19°C° 0 mm 3 mps 755 mmHg 58%
    18:00 +17°C° 0 mm 3 mps 755 mmHg 63%
    19:00 +14°C° 0 mm 3 mps 755 mmHg 68%
    20:00 +14°C° 0 mm 2 mps 755 mmHg 73%
    21:00 +12°C° 0 mm 3 mps 755 mmHg 74%
    22:00 +12°C° 0 mm 3 mps 755 mmHg 75%
    23:00 +11°C° 0 mm 3 mps 755 mmHg 76%

    30 August, Friday

    Time Temperature Precipitation Wind Pressure Humidity
    00:00 +11°C° 0 mm 3 mps 756 mmHg 78%
    01:00 +10°C° 0 mm 2 mps 756 mmHg 80%
    02:00 +10°C° 0 mm 2 mps 756 mmHg 81%
    03:00 +9°C° 0 mm 2 mps 755 mmHg 82%
    04:00 +9°C° 0 mm 2 mps 755 mmHg 83%
    05:00 +9°C° 0 mm 2 mps 755 mmHg 84%
    06:00 +10°C° 0 mm 2 mps 755 mmHg 78%
    07:00 +12°C° 0 mm 3 mps 755 mmHg 72%
    08:00 +13°C° 0 mm 3 mps 755 mmHg 67%
    09:00 +16°C° 0 mm 3 mps 755 mmHg 62%
    10:00 +18°C° 0 mm 3 mps 755 mmHg 57%
    11:00 +19°C° 0 mm 4 mps 755 mmHg 52%
    12:00 +20°C° 0 mm 3 mps 755 mmHg 50%
    13:00 +21°C° 0 mm 3 mps 755 mmHg 47%
    14:00 +22°C° 0 mm 3 mps 755 mmHg 45%
    15:00 +22°C° 0 mm 3 mps 754 mmHg 48%
    16:00 +21°C° 0 mm 3 mps 754 mmHg 51%
    17:00 +21°C° 0 mm 2 mps 754 mmHg 54%
    18:00 +19°C° 0 mm 2 mps 754 mmHg 59%
    19:00 +17°C° 0 mm 2 mps 754 mmHg 64%
    20:00 +15°C° 0 mm 2 mps 754 mmHg 69%
    21:00 +14°C° 0 mm 2 mps 754 mmHg 70%
    22:00 +13°C° 0 mm 2 mps 754 mmHg 70%
    23:00 +13°C° 0 mm 2 mps 754 mmHg 71%
    Show more